Location: Unspecified
(0.0000°N, 0.0000°E)
Time: 20:58:36
(UTC+02:00)

SWIFT - Visible Passes

Search period start: 26 June 2016 00:00
Search period end: 06 July 2016 00:00
Orbit: 549 x 565 km, 20.6° (Epoch: 26 June)

Date Brightness Start Highest point End Pass type
(mag) Time Alt. Az. Time Alt. Az. Time Alt. Az.
28 Jun 5.1 22:13:14 10° N 22:13:49 11° N 22:13:49 11° N visible
29 Jun 4.8 22:07:40 10° NNW 22:09:14 14° N 22:09:14 14° N visible
30 Jun 4.4 22:02:23 10° NNW 22:04:40 19° N 22:04:40 19° N visible
01 Jul 4.0 21:57:16 10° NW 22:00:07 26° N 22:00:07 26° N visible
02 Jul 3.4 21:52:14 10° NW 21:55:35 36° N 21:55:35 36° N visible
03 Jul 2.8 21:47:19 10° WNW 21:51:04 52° N 21:51:04 52° N visible
04 Jul 2.2 21:42:30 10° WNW 21:46:35 79° N 21:46:35 79° N visible
05 Jul 2.2 21:37:47 10° WNW 21:41:58 71° SSW 21:42:07 70° S visible
